#timestamp,LO_Frequency,Hit,StdDev 
1597302015.2,286046997.0,N
1597302035.0,286046997.2,N
1597302035.9,286046997.2,N
1597302055.8,286046999.4,N
1597302075.6,286046996.7,N
1597302095.4,286046997.5,N
1597302115.3,286046997.6,N
1597302135.1,286046997.6,N
1597302155.9,286046995.3,Y
1597302175.7,286046999.6,P
1597302195.5,286046999.3,N
1597302215.4,286046997.6,P
1597302235.2,286046995.0,Y
1597302255.0,286046997.0,P
1597302256.0,286046997.0,P
1597302275.8,286046997.8,N
1597302295.6,286046999.4,N
1597302315.5,286046998.4,N
1597302335.3,286046996.5,Y
1597302355.1,286047001.0,P
1597302375.9,286046998.2,N
1597302395.7,286046998.4,N
1597302415.6,286046998.4,N
1597302435.4,286046998.3,N
1597302455.2,286047000.5,N
1597302475.1,286047000.3,N
1597302476.0,286047000.3,N
1597302495.8,286047000.9,N
1597302515.6,286047001.0,N
1597302535.5,286047000.0,N
1597302555.3,286047001.0,N
1597302575.2,286046998.4,N
1597302595.9,286046998.4,N
1597302615.7,286046999.3,N
1597302635.6,286046996.6,N
1597302655.4,286046996.9,N
1597302675.3,286046996.9,N
1597302695.1,286046998.3,N
1597302696.0,286046998.3,N
1597302715.8,286046998.5,N
1597302735.7,286046999.0,N
1597302755.5,286046999.0,N
1597302775.4,286046998.3,N
1597302795.2,286047001.0,N
1597302815.0,286046998.8,N
1597302815.9,286046998.8,N
1597302835.8,286046996.5,N
1597302855.6,286046999.6,N
1597302875.5,286046998.4,N
1597302895.3,286046998.6,N
1597302915.1,286046997.2,N
1597302935.9,286046999.4,N
1597302955.7,286046999.1,N
1597302975.6,286046999.2,N
1597302995.4,286046998.2,N
1597303015.3,286047000.6,N
1597303035.1,286047001.2,N
1597303036.0,286047001.2,N
1597303055.8,286047000.7,N
1597303075.7,286047000.5,N
1597303095.5,286047000.6,N
1597303115.3,286046999.8,N
1597303135.2,286047002.2,N
1597303155.0,286047000.0,N
1597303155.9,286047000.0,N
1597303175.8,286047000.6,N
1597303195.6,286047000.2,N
1597303215.4,286047002.5,N
1597303235.3,286047002.2,N
1597303255.1,286047002.5,N
1597303275.8,286047002.6,N
1597303295.7,286047002.7,N
1597303315.5,286047002.7,N
1597303335.4,286047002.3,N
1597303355.2,286047002.2,N
1597303375.0,286047002.4,N
1597303375.9,286047002.4,N
1597303395.8,286046999.8,N
1597303415.6,286047000.0,N
1597303435.5,286047002.6,N
1597303455.3,286047002.4,N
1597303475.1,286047002.6,N
1597303495.9,286047001.9,N
1597303515.7,286047002.5,N
1597303535.5,286047002.1,N
1597303555.4,286047001.9,N
1597303575.2,286047001.9,N
1597303595.1,286047002.1,N
1597303596.0,286047002.1,N
1597303615.8,286047002.8,N
1597303635.6,286047002.7,N
1597303655.5,286047000.2,N
1597303675.3,286047000.2,N
1597303695.1,286047000.3,N
1597303715.9,286047002.8,N
1597303735.7,286047002.0,N
1597303755.6,286046999.7,N
1597303775.4,286047002.5,N
1597303795.2,286047002.2,N
1597303815.1,286047002.0,N
1597303816.0,286047002.0,N
1597303865.8,286047001.4,E
1597303875.7,286047002.4,N
1597303895.6,286046999.9,P
1597303915.4,286046999.9,N
1597303935.3,286047002.6,N
1597303955.1,286047002.4,N
1597303956.0,286047002.4,N
1597303975.8,286047002.7,N
1597303995.7,286047000.4,N
1597304015.5,286047000.2,N
1597304035.4,286047002.4,N
1597304055.2,286047002.4,N
1597304075.0,286047002.7,N
1597304075.9,286047002.7,N
1597304095.8,286047002.4,N
1597304115.6,286046999.7,N
1597304135.5,286047000.0,N
1597304155.3,286047001.9,N
1597304175.1,286046999.7,N
1597304195.9,286047002.7,N
1597304215.7,286047002.1,N
1597304235.5,286046999.7,N
1597304255.4,286046999.7,N
1597304275.2,286047002.7,N
1597304295.0,286047001.3,N
1597304296.0,286047001.3,N
1597304315.8,286047002.6,N
1597304335.6,286047001.8,N
1597304355.5,286047002.6,N
1597304375.3,286047001.6,N
1597304395.1,286047001.6,N
1597304415.9,286047001.6,N
1597304435.7,286047002.1,N
1597304455.5,286047002.5,N
1597304475.4,286047002.5,N
1597304495.2,286047001.9,N
1597304515.1,286046999.7,N
1597304516.0,286046999.7,N
1597304535.8,286046999.7,N
1597304555.6,286047002.8,N
1597304575.6,286046999.8,N
1597304595.4,286046999.9,N
1597304615.2,286046999.9,N
1597304635.1,286046999.9,N
1597304636.0,286046999.9,N
1597304655.8,286047000.5,N
1597304675.6,286047000.2,N
1597304695.5,286047000.6,N
1597304715.3,286047000.3,N
1597304735.2,286047000.6,N
1597304755.9,286047001.0,N
1597304775.7,286046999.9,N
1597304795.6,286046999.7,N
1597304815.4,286047001.3,N
1597304835.3,286047002.2,N
1597304855.1,286047002.7,N
1597304856.0,286047002.7,N
1597304875.8,286047002.6,N
1597304895.7,286047000.1,N
1597304915.5,286047000.1,N
1597304935.4,286046999.7,N
1597304955.2,286047002.3,N
1597304975.1,286047002.0,N
1597304976.0,286047002.0,N
1597304995.8,286047001.7,N
1597305015.6,286047002.4,N
1597305035.5,286047000.0,N
1597305055.3,286047000.0,N
1597305075.2,286047000.9,N
1597305095.9,286047000.3,N
1597305115.7,286047000.6,N
1597305135.6,286046999.9,N
1597305155.4,286047000.3,N
1597305175.2,286047000.4,N
1597305195.1,286047001.5,N
1597305196.0,286047001.5,N
1597305215.8,286047002.0,N
1597305235.7,286047002.1,N
1597305255.5,286047002.5,N
1597305275.3,286047002.1,N
1597305295.2,286047001.7,N
1597305315.0,286047001.6,N
1597305315.9,286047001.6,N
1597305335.8,286047002.5,N
1597305355.6,286047002.2,N
1597305375.4,286047001.8,N
1597305395.3,286047001.5,N
1597305415.1,286046999.8,N
1597305435.8,286046999.7,N
1597305455.7,286047002.0,N
1597305475.5,286047002.5,N
1597305495.4,286046999.8,N
1597305515.2,286047002.1,N
1597305535.0,286047003.7,Y
1597305535.9,286047003.7,P
1597305555.8,286047001.7,N
1597305575.6,286047002.1,N
1597305595.5,286047002.1,N
